STARLINK-3779, 52281

Orbit data source: Space-Track

STARLINK-3779, 52281 is a payload satellite owned by SpaceX/Seattle (US) in LEO that was launched on Thu, 21 Apr 2022 UTC via an FALCON 9 launch vehicle from the Air Force Eastern Test Range (AFETR). Payload-class satellites include a variety of spacecraft equipped with specific instruments for various scientific and technological missions. These include communications satellites like Starlink; space stations such as the ISS; scientific satellites like the Hubble; Earth observation satellites from companies like Planet Labs, Umbra, and HawkEye 360; GPS; miniature CubeSats for education and research; and military/defense satellites.

Loading next visibility...
Identifier
52281, 2022-041W
Orbit
LEO
Country
Flag of USUS
Related business
Manufacturer
SpaceX/Seattle
Mission
Operational Commercial Communications
Bus & Motor
STARLINK, Unknown motor
Mass
297 kg wet, ~275 kg dry
Launch date (UTC)
2022-04-21 (4 years ago)
Launch vehicle
FALCON 9
Launch site
Air Force Eastern Test Range (AFETR)
Object type
Payload
Rocket body
Debris
Shape & HBR
Box + 1 Pan, 10.1 m
Radar Cross Section
11.087 m², Large (>1 m²)

Expand to show TLE details & history
Last TLE update: 19 hours ago

TLE from 19 hours ago
0 STARLINK-3779
1 52281U 22041W   26175.18644046 -.00000092  00000-0  12322-4 0  9997
2 52281  53.1590 350.8972 0001249  85.4825 274.6309 15.08833895230449
Epoch: 2026-06-24T04:28Z
TLE epoch observation values (Epoch: 2026-06-24T04:28:28.455Z)
Latitude
-0.00004°
Longitude
11.43134°
Altitude
540.584 km
Speed
7.593 km/s
True Right ascension
23h 23m 35s
True Declination
0° 00' 00"
Sunlit
Object was in daylight at epoch
Visualization orbit readout
Latitude
Unknown
Longitude
Unknown
Altitude
Unknown
Speed
Unknown
Apparent Right ascension
Unknown
Apparent Declination
Unknown
Sunlit
N/A
Visualization observer readout
Local Sidereal Time
10:34:43
Azimuth
Unknown
Elevation
Unknown
Doppler factor
Unknown
Orbital elements
Apogee altitude
540.88 km
Perigee altitude
539.152 km
Semi-major axis
6,918.153 km
Eccentricity
0.00012
Inclination
53.159°
RAAN
350.8972°
Arg. of periapsis
85.4825°
True anomaly
274.61663°
Mean anomaly
274.6309°
Eccentric anomaly
274.62377°
Mean motion
3.77188 °/min
Orbital period
95.44 mins
BSTAR
0.000012322
Loading maneuver chart data...
Computing Atmospheric mass density...
Loading historical data...
Loading historical data...
Loading historical data...
Loading historical data...
Loading historical data...
Loading historical data...
Loading historical data...

Documentation

Showing up to 5 results
|